Location: Campo López
(32.1556°N, 116.8975°W)
Time: 01:23:36
(UTC+00:00)

Daily predictions for brighter satellites

Satellite Brightness Start Highest point End
(mag) Time Altitude Azimuth Time Altitude Azimuth Time Altitude Azimuth
Feng Yun 1-1 Rocket 4.4 03:02:04 10° S 03:07:36 81° WSW 03:13:03 10° NNW
Cosmos 1500 Rocket 4.0 03:04:33 10° NNW 03:08:56 70° W 03:13:20 10° S
Cosmos 2227 Rocket 3.7 03:05:05 10° NNE 03:09:15 21° ENE 03:13:25 10° ESE
Cosmos 1980 Rocket 3.4 03:07:01 10° SSE 03:11:08 21° E 03:15:15 10° NE
Cosmos 1400 Rocket 3.0 03:09:01 10° NNW 03:12:54 76° W 03:16:49 10° S
Cosmos 1812 4.1 03:11:40 10° SSW 03:15:17 43° W 03:18:56 10° N
Cosmos 1328 Rocket 4.1 03:14:22 10° SSE 03:18:18 37° E 03:22:16 10° NNE
H-2A R/B 2.7 03:15:39 10° NE 03:19:18 31° E 03:22:58 10° SSE
Cosmos 1486 Rocket 4.4 03:16:19 10° S 03:21:19 43° ESE 03:26:18 10° NNE
Cosmos 2369 4.4 03:16:27 10° SSE 03:21:21 32° ESE 03:26:17 10° NE
Cosmos 1814 Rocket 4.0 03:18:15 10° N 03:23:21 63° ENE 03:28:26 10° SSE
MetOp-A 4.0 03:21:56 10° SE 03:25:46 39° ENE 03:29:26 10° N
Cosmos 841 Rocket 4.2 03:23:57 10° NNW 03:28:58 55° WSW 03:34:00 10° S
Cosmos 1697 Rocket 2.7 03:23:54 10° SSW 03:29:31 73° ESE 03:35:10 10° NNE
CZ-4B R/B 2.6 03:29:15 10° NE 03:31:41 20° E 03:33:29 13° SE
Cosmos 2098 Rocket 3.6 03:30:40 10° NNW 03:33:25 36° W 03:36:04 10° SSW
USA 186 1.0 03:31:07 10° S 03:33:34 85° W 03:35:57 10° NNW
deb Chang Zheng 4 4.1 03:31:14 10° S 03:35:17 58° WSW 03:39:22 10° NNW
Gbstr 26 Del rocket 4.1 03:28:11 10° NW 03:35:39 87° NE 03:41:08 13° SE
Cosmos 2360 4.2 03:30:44 10° SSW 03:36:22 79° ESE 03:42:04 10° NNE
CSL-04 Debris 4.2 03:31:04 10° SSE 03:36:30 88° WSW 03:41:55 10° NNW
OBJECT-B 1.7 03:34:08 10° S 03:36:54 41° W 03:39:41 10° NNW
Cosmos 1151 Rocket 3.3 03:33:19 10° SSW 03:37:34 71° W 03:41:50 10° N
JB-3 4.5 03:37:34 10° NNE 03:41:41 59° E 03:45:45 10° S
Cosmos 1340 3.4 03:40:46 12° SSE 03:43:42 32° E 03:47:02 10° NNE
COBE Rocket 4.1 03:39:36 10° SSE 03:44:38 62° ENE 03:49:35 10° N
CZ-4 R/B 3.8 03:42:07 10° SSW 03:45:11 21° W 03:48:20 10° NW
ATLAS 2AS CENTAUR R/B 3.2 03:38:47 10° S 03:46:10 48° ESE 03:53:30 10° NE
Cosmos 2297 Rocket 2.2 03:40:42 10° NNW 03:46:20 68° ENE 03:51:08 14° SSE
Resurs 1-3 3.6 03:46:17 12° SSE 03:50:11 64° ENE 03:54:32 10° N
Cosmos 1503 Rocket 4.3 03:45:40 10° S 03:50:38 47° ESE 03:55:43 10° NNE
SJ-6B 3.0 03:47:13 10° S 03:51:01 67° W 03:54:47 10° NNW
Cosmos 1666 Rocket 3.5 03:48:06 10° N 03:52:31 83° E 03:56:51 11° S
H-2A R/B 2.9 03:48:27 10° S 03:52:49 66° WSW 03:57:06 10° NNW
SJ 16-02 2.3 03:52:33 19° SE 03:54:33 27° E 03:58:13 10° NE
Cosmos 1315 Rocket 2.7 03:52:20 10° N 03:56:23 89° ENE 03:59:46 14° S
SL-16 R/B 4.1 04:00:33 12° E 04:00:33 12° E 04:01:42 10° ENE
Cosmos 1633 Rocket 2.9 03:56:03 10° N 04:00:25 83° E 04:03:56 15° S
ATLAS 5 CENTAUR R/B 3.3 03:48:30 10° W 04:02:24 29° SSW 04:06:10 16° SSE
Cosmos 1072 Rocket 4.5 03:57:03 10° S 04:03:01 62° E 04:09:03 10° NNE
Cosmos 1743 3.7 04:01:04 10° NNE 04:04:23 29° E 04:05:10 26° ESE
SPOT 1/Viking Rocket 4.2 04:02:44 22° SE 04:05:25 38° ENE 04:10:10 10° N
Cosmos 1470 Rocket 3.5 04:07:52 10° N 04:12:08 61° E 04:14:11 29° SSE
Meteor 1-27 Rocket 3.8 04:09:21 10° S 04:15:03 87° W 04:20:56 10° N
OAO 3 Rocket 3.4 04:11:22 10° WNW 04:16:16 69° N 04:19:18 23° E
DASH 3.7 04:02:22 10° W 04:16:52 49° SSW 04:18:48 29° SSE
Resurs 01 Rocket 1.6 04:16:57 31° SSE 04:18:54 64° ENE 04:23:15 10° N
Cosmos 1515 Rocket 3.6 04:14:44 10° S 04:19:02 78° W 04:23:25 10° N
Cosmos 2278 3.8 04:14:20 10° S 04:19:48 55° ESE 04:25:20 10° NNE
Cosmos 2208 Rocket 4.5 04:15:40 10° NNW 04:20:59 61° WSW 04:24:53 18° S
NOSS 3-2 (C) 4.4 04:13:43 10° NW 04:21:44 70° WSW 04:28:22 20° SSE
Ariane Rocket 3.2 04:20:59 31° SE 04:23:07 53° ENE 04:28:03 10° N
Terra 4.0 04:23:27 11° ENE 04:23:50 11° ENE 04:25:08 10° NE
Cosmos 2219 3.1 04:20:27 10° NNW 04:26:05 87° ENE 04:28:56 30° SSE
CENTAUR R/B 4.2 04:18:09 10° NW 04:26:16 44° WSW 04:34:23 11° S
Cosmos 921 Rocket 3.9 04:24:55 10° N 04:29:01 34° ENE 04:29:35 33° E
Landsat 7 4.3 04:26:48 19° S 04:30:01 57° W 04:34:40 10° NNW
SWIFT 4.4 04:27:50 10° SW 04:29:15 15° SSW 04:29:15 15° SSW
Cosmos 2034 Rocket 4.0 04:27:22 22° S 04:31:31 67° E 04:37:48 10° NNE
CARTOSAT-1 4.2 04:31:39 36° E 04:32:08 37° ENE 04:36:06 10° N
Cosmos 2082 4.1 04:27:15 10° N 04:32:39 47° ENE 04:34:24 35° ESE
Cosmos 2263 Rocket 3.5 04:30:22 10° N 04:34:42 23° ENE 04:35:57 21° E
Cosmos 2228 Rocket 3.4 04:36:11 44° ESE 04:36:29 44° E 04:40:49 10° NNE
Meteor 1-11 Rocket 4.0 04:31:08 10° NNW 04:37:05 71° W 04:40:52 23° S
Okean 1 3.2 04:37:50 61° SE 04:38:18 70° E 04:42:18 10° NNE
Cosmos 1184 Rocket 4.2 04:39:41 23° SW 04:40:52 32° W 04:43:38 10° NNW
Cosmos 1536 3.1 04:39:27 10° NNW 04:43:26 63° W 04:44:32 43° SSW
RESURS DK-1 2.6 04:40:29 17° SSW 04:43:36 69° WNW 04:47:42 10° NNE
ASTRO E2 3.2 04:42:55 10° W 04:46:10 44° SW 04:46:10 44° SW
SL-4 R/B 2.3 04:44:34 10° NW 04:49:00 58° NE 04:49:24 55° ENE
BREEZE-M DEB (TANK) 4.3 04:46:04 10° WNW 04:49:41 43° SW 04:51:26 33° S
USA 245 4.4 04:50:02 46° SE 04:51:38 64° ENE 04:57:50 10° N
Cosmos 2227 Rocket 3.0 04:48:07 10° NW 04:53:28 45° WSW 04:56:08 27° SSW
Cosmos 1980 Rocket 3.4 04:49:30 10° SW 04:54:45 40° WNW 05:00:03 10° N
Cosmos 1777 Rocket 4.0 04:53:11 27° SSW 04:56:03 80° WNW 05:01:19 10° NNE
Spot 2 Rocket 4.0 04:56:36 41° E 04:56:48 42° ENE 05:01:31 10° N
SPOT 3 Rocket 3.4 04:59:23 62° SE 05:00:13 77° ENE 05:05:22 10° N
ARIANE 5 R/B 4.4 05:01:18 20° NE 05:01:18 20° NE 05:03:50 10° NNE
CZ-4B R/B 4.4 05:01:42 10° NW 05:03:00 12° WNW 05:04:18 10° W
Cosmos 2322 Rocket 3.2 05:04:59 30° ENE 05:04:59 30° ENE 05:08:28 10° NE
Cosmos 1809 Rocket 4.4 04:57:39 10° N 05:03:48 89° W 05:05:42 48° S
Cosmos 389 Rocket 3.7 05:00:48 10° NNW 05:04:00 37° W 05:04:00 37° W
Cosmos 773 Rocket 4.0 05:00:37 10° N 05:05:45 58° ENE 05:05:56 58° E
Meteor 2-4 Rocket 3.6 05:10:31 64° SE 05:11:09 70° E 05:16:50 10° NNE
Cosmos 1975 4.3 05:09:39 10° N 05:11:59 28° NE 05:11:59 28° NE
USA 215 4.4 05:09:43 10° ENE 05:12:52 26° E 05:12:52 26° E
Helios 1A Rocket 3.6 05:19:41 51° N 05:19:41 51° N 05:22:42 10° NNW
Cosmos 158 Rocket 4.4 05:23:53 10° N 05:28:23 51° NE 05:28:23 51° NE
CZ-3 Stage 3 3.4 05:19:55 10° W 05:28:02 51° WSW 05:28:02 51° WSW
USA 81 4.1 05:32:10 73° NNE 05:32:10 73° NNE 05:36:58 10° N
ERS-1 Rocket 3.0 05:32:27 71° N 05:32:27 71° N 05:36:58 10° N
SJ 16-02 3.8 05:29:53 10° WSW 05:33:01 19° WNW 05:36:11 10° NNW
Cosmos 1634 Rocket 3.9 05:33:09 64° SSW 05:34:08 80° W 05:40:21 10° N
Cosmos 1092 Rocket 3.8 05:28:45 10° N 05:34:56 88° W 05:35:23 78° S
ATLAS 2AS CENTAUR R/B 4.4 05:30:19 10° WSW 05:37:17 35° NW 05:44:08 10° NNE
CZ-2C R/B 4.3 05:34:19 10° N 05:38:57 54° WNW 05:38:58 54° WNW
Cosmos 2142 Rocket 4.5 05:39:20 71° E 05:39:20 71° E 05:45:37 10° N
Meteor 2-15 Rocket 4.4 05:40:16 68° ENE 05:40:16 68° ENE 05:45:53 10° NNE
SL-16 R/B 2.4 05:42:19 62° WSW 05:42:54 67° WNW 05:48:34 10° NNE
Cosmos 2237 4.4 05:46:08 63° NNE 05:46:08 63° NNE 05:50:54 10° NNE
Cosmos 2026 Rocket 4.1 05:53:32 10° NNW 05:59:39 64° W 05:59:48 63° W
Terra 2.8 06:02:20 43° NW 06:02:20 43° NW 06:05:42 10° NNW
SPOT 5 4.0 06:01:47 41° W 06:01:47 41° W 06:06:15 10° NNW
ISS -0.4 05:58:28 10° NNW 05:58:52 12° NNW 05:58:52 12° NNW
Cosmos 2360 Rocket 3.0 06:09:14 45° NNE 06:09:14 45° NNE 06:13:05 10° NNE
ATLAS 3B R/B 3.2 06:01:45 10° NNW 06:09:05 56° ENE 06:09:35 55° ENE
Cosmos 2263 Rocket 3.3 06:13:34 10° NW 06:17:39 35° W 06:17:39 35° W
H-2A ROCKET BODY 4.0 06:00:59 10° W 06:37:48 56° SSW 06:38:16 56° SSW
ATLAS CENTAUR R/B 4.1 06:35:49 10° N 06:37:47 17° NNE 06:37:47 17° NNE
Cosmos 2322 Rocket 3.9 06:46:43 24° WNW 06:47:27 25° WNW 06:52:00 10° N
Cosmos 2333 Rocket 3.4 06:55:08 39° N 06:55:08 39° N 06:58:38 10° NNE
Cosmos 1844 Rocket 3.9 06:52:48 10° NNW 06:56:11 38° NNW 06:56:11 38° NNW
USA 215 3.9 06:52:28 10° NNE 06:58:43 49° NW 07:00:09 42° WNW
ADEOS Rocket 4.4 07:00:11 27° NE 07:00:11 27° NE 07:03:50 10° N
Cosmos 2219 Rocket 3.5 07:13:11 35° N 07:13:11 35° N 07:16:25 10° NNE
Cosmos 2237 Rocket 3.9 07:43:57 26° NE 07:43:57 26° NE 07:46:28 10° NNE
COSMOS 2428 4.1 07:47:44 34° NNW 07:47:44 34° NNW 07:51:13 10° N
ATLAS 3B R/B 4.5 07:53:23 10° NW 07:56:50 22° W 07:56:50 22° W
CZ-4C R/B 3.3 07:51:50 10° NNW 07:59:30 62° ENE 07:59:53 61° ENE
NOSS 3-1 (C) 4.2 08:03:39 10° NNW 08:10:48 73° NW 08:10:48 73° NW
Cosmos 2278 Rocket 3.5 08:14:06 10° N 08:17:53 36° NNE 08:17:53 36° NNE
Lacrosse 5 4.0 08:22:52 23° NE 08:22:52 23° NE 08:24:44 10° NE
SL-16 R/B 3.8 08:31:39 29° ENE 08:31:39 29° ENE 08:34:46 10° NE
SL-16 R/B 4.3 08:46:14 19° E 08:48:31 24° ENE 08:53:19 10° NNE
COSMOS 2455 3.7 09:01:17 41° ENE 09:01:17 41° ENE 09:05:46 10° NE
CZ-2D R/B 3.0 09:03:35 10° NNE 09:07:28 45° NE 09:07:28 45° NE
Lacrosse 5 rocket 4.0 09:12:11 17° NNE 09:12:11 17° NNE 09:13:16 10° NNE
USA 267 3.6 09:13:29 54° WNW 09:13:29 54° WNW 09:18:23 10° NW
Meteor 2-5 Rocket 4.3 09:22:35 51° NNW 09:22:35 51° NNW 09:26:59 10° N
Cosmos 2237 Rocket 4.1 09:25:45 19° NW 09:25:45 19° NW 09:29:17 10° NNW
USA 229 DEB 4.3 09:21:22 10° NW 09:27:29 52° W 09:27:29 52° W
USA 229 4.2 09:21:28 10° NW 09:27:37 52° W 09:27:37 52° W
Resurs 1-4 Rocket 2.6 09:28:14 10° N 09:32:24 55° N 09:32:24 55° N
Nadezhda 1 Rocket 4.1 09:38:22 66° ESE 09:38:51 69° E 09:45:08 10° NNE
NOSS 3-3 (A) 4.1 09:39:55 54° E 09:39:55 54° E 09:45:19 10° NE
NOSS 3-3 (C) 4.1 09:40:00 53° E 09:40:00 53° E 09:45:24 10° NE
IDEFIX/ARIANE 42P 3.0 09:40:03 10° NNE 09:45:05 56° E 09:45:05 56° E
Cosmos 1943 Rocket 2.3 09:40:27 10° NNW 09:46:07 68° ENE 09:46:34 65° E
ADEOS II 2.2 09:41:26 10° NNE 09:46:18 69° ENE 09:46:18 69° ENE
CZ-4C R/B 4.4 09:41:15 10° NW 09:44:59 23° WNW 09:44:59 23° WNW
MOS 1 Rocket 4.0 09:49:39 46° NE 09:49:39 46° NE 09:53:04 10° N
Cosmos 2297 4.1 09:48:19 10° NNW 09:54:00 60° ENE 09:55:48 41° SE
IRS-1D 4.5 09:51:02 10° NNE 09:56:00 40° E 09:56:49 37° ESE
ATLAS 2A CENTAUR R/B 4.4 09:50:14 36° SW 09:59:40 60° S 10:09:03 10° E
Lacrosse 5 4.0 10:02:02 16° NW 10:03:06 17° NW 10:06:22 10° N
Cosmos 2278 Rocket 4.5 09:59:25 10° WNW 09:59:42 11° WNW 09:59:42 11° WNW
Cosmos 1455 4.3 10:01:00 10° NNW 10:02:19 21° NNW 10:02:19 21° NNW
NPP 4.3 10:04:20 10° N 10:09:05 41° WNW 10:09:05 41° WNW
SL-16 R/B 3.6 10:13:31 23° WNW 10:13:42 23° WNW 10:18:10 10° N
Cosmos 1271 Rocket 3.7 10:10:21 10° N 10:13:07 45° N 10:13:07 45° N
Cosmos 2369 Rocket 3.2 10:11:15 10° N 10:16:33 43° ENE 10:21:50 10° SE
Meteor 1-21 Rocket 4.1 10:17:56 60° S 10:19:01 85° E 10:24:37 10° N
Cosmos 2154 Rocket 3.9 10:13:41 10° N 10:20:00 73° W 10:21:27 54° SSW
Cosmos 2228 3.1 10:18:02 10° N 10:22:22 69° E 10:22:40 66° ESE
SL-16 R/B 2.8 10:31:19 44° WSW 10:31:44 45° W 10:37:39 10° NNW
Cosmos 1603 3.6 10:35:48 52° SW 10:37:07 71° WNW 10:42:46 10° NNE
Cosmos 1371 Rocket 4.2 10:35:37 41° S 10:37:19 66° ESE 10:42:26 10° NNE
GPS 2-04 Rocket1 2.7 10:39:11 60° NE 10:39:11 60° NE 10:42:12 10° ENE
Cosmos 1328 3.6 10:42:00 74° W 10:42:00 74° W 10:45:58 10° N
COSMOS 2455 4.3 10:44:25 21° WNW 10:46:08 23° NW 10:50:50 10° N
Cosmos 1140 Rocket 4.3 10:41:30 10° N 10:46:36 50° ENE 10:51:38 10° SE
CZ-2D R/B 4.0 10:45:38 10° NW 10:48:17 14° WNW 10:48:47 14° WNW
SeaSat 1 4.3 10:45:04 10° NE 10:49:03 24° ESE 10:52:52 11° SSE
DNEPR-1 R/B 4.3 10:50:23 34° WNW 10:50:53 36° WNW 10:54:56 10° N
Helios 1B rocket 2.4 10:48:10 10° NNE 10:52:14 77° ESE 10:53:29 43° S
MOS 1-B Rocket 4.4 10:47:35 10° SSE 10:53:06 57° ENE 10:58:38 10° N
Cosmos 1825 4.3 10:51:08 10° SE 10:54:05 23° E 10:57:03 10° NE
Cosmos 1241 Rocket 4.4 10:56:54 34° SW 10:59:47 75° WNW 11:06:00 10° NNE
Cosmos 1606 Rocket 3.5 10:55:31 10° NNW 10:59:51 64° W 11:01:20 38° SSW
OAO 2 Rocket 3.4 11:00:43 29° W 11:03:14 72° N 11:08:09 10° ENE
Helios 1A 4.1 11:04:40 27° W 11:04:40 27° W 11:07:45 10° NW
Cosmos 2218 Rocket 4.1 10:58:44 10° N 11:05:01 79° E 11:11:21 10° S
Cosmos 1943 4.1 11:05:15 26° W 11:07:14 33° WNW 11:12:21 10° N
Lacrosse 4 Rocket 1.6 11:07:58 29° S 11:10:06 70° ESE 11:14:20 10° NNE
Cosmos 1408 2.4 11:09:12 40° SSW 11:10:24 76° W 11:14:01 10° N
Cosmos 1624 Rocket 4.1 11:07:53 30° SW 11:10:25 63° WNW 11:15:41 10° N
SEDSat Delta rocket 4.0 11:08:03 24° WSW 11:12:18 79° S 11:19:02 10° E
Meteor 1-11 4.2 11:09:14 23° SSW 11:12:59 73° W 11:18:47 10° N
Cosmos 2181 Rocket 4.1 11:10:08 24° SSW 11:13:50 57° W 11:19:55 10° N
Cosmos 1892 2.5 11:12:43 31° SSW 11:14:26 81° W 11:18:13 10° N
Cosmos 1959 Rocket 4.4 11:11:20 10° N 11:17:34 85° W 11:23:42 10° S
ARIANE 5 R/B 2.8 11:12:58 10° NNE 11:17:58 66° ESE 11:22:42 11° S
IRS-1C 4.1 11:13:53 10° NNE 11:19:15 84° ESE 11:23:53 14° SSW
Okean 1-7 Rocket 3.6 11:16:36 17° S 11:20:02 82° E 11:24:27 10° N
Meteor 2-1 Rocket 4.5 11:15:01 10° NNW 11:20:29 48° W 11:24:41 16° SSW
CBERS-1 4.5 11:16:32 10° N 11:21:22 43° WNW 11:24:04 23° SW
Cosmos 2056 Rocket 3.9 11:19:47 26° SW 11:22:24 47° WNW 11:27:27 10° N
OAO 3 Copernicus 4.2 11:20:38 25° WSW 11:23:34 82° SSE 11:28:36 10° ENE
IDEFIX/ARIANE 42P 4.4 11:21:26 10° NNW 11:24:14 15° WNW 11:25:53 13° W
ADEOS II 4.1 11:24:10 10° NW 11:25:40 11° WNW 11:27:11 10° W
Cosmos 864 Rocket 4.4 11:21:00 10° N 11:27:07 70° W 11:33:10 10° S
Cosmos 1943 Rocket 4.1 11:27:05 10° WNW 11:28:00 11° W 11:28:00 11° W
ALOS 2.2 11:25:38 10° N 11:30:16 69° WNW 11:34:01 16° SSW
FENGYUN 3A 3.8 11:25:26 10° N 11:30:44 60° WNW 11:35:03 16° SSW
ATLAS 3B CENTAUR R/B 2.9 11:31:03 16° S 11:33:01 22° SSE 11:37:21 10° E
Cosmos 1602 Rocket 4.1 11:29:17 10° S 11:33:40 60° E 11:38:04 10° NNE
Cosmos 2263 4.5 11:33:12 10° NNW 11:38:38 47° WSW 11:44:05 10° S
Cosmos 1190 Rocket 4.0 11:37:05 10° NNW 11:42:22 75° WSW 11:47:39 10° S
Meteor 1-29 3.0 11:43:14 10° N 11:46:25 54° WNW 11:49:08 13° SSW
CZ-2C R/B 2.9 11:45:18 10° N 11:50:06 44° WNW 11:54:36 11° SW
PAYLOAD A 4.4 11:49:12 10° N 11:53:39 40° WNW 11:58:12 10° SW
